This is the latest recevied weather packets stored in our database for station/object N5PRN. If no packets are shown the sender has not sent any weather packets the latest 10 day(s).
| Time | Temp. | Humidity | Pressure | Rain* | Wind** | Luminosity | Snow |
|---|---|---|---|---|---|---|---|
| 1777765433 | 20° C | 56% | 1018.1 hPa | 0 mm | - | 39 W/m² | - |
| 1777765130 | 20° C | 52% | 1017.9 hPa | 0 mm | - | 42 W/m² | - |
| 1777764825 | 20° C | 54% | 1018 hPa | 0 mm | - | 42 W/m² | - |
| 1777764523 | 20° C | 48% | 1017.8 hPa | 0 mm | - | 45 W/m² | - |
| 1777764220 | 20.56° C | 49% | 1017.6 hPa | 0 mm | - | 51 W/m² | - |
| 1777763916 | 20.56° C | 53% | 1017.9 hPa | 0 mm | - | 53 W/m² | - |
| 1777763614 | 20.56° C | 49% | 1017.7 hPa | 0 mm | - | 59 W/m² | - |
| 1777763312 | 20.56° C | 49% | 1017.7 hPa | 0 mm | - | 53 W/m² | - |
| 1777763010 | 20.56° C | 52% | 1017.8 hPa | 0 mm | - | 54 W/m² | - |
| 1777762706 | 21.11° C | 46% | 1017.9 hPa | 0 mm | - | 134 W/m² | - |
| 1777762403 | 21.67° C | 47% | 1017.7 hPa | 0 mm | - | 73 W/m² | - |
| 1777762099 | 22.22° C | 47% | 1017.4 hPa | 0 mm | - | 71 W/m² | - |
| 1777761790 | 22.22° C | 45% | 1017.5 hPa | 0 mm | - | 297 W/m² | - |
| 1777761488 | 22.22° C | 45% | 1017.7 hPa | 0 mm | - | 324 W/m² | - |
| 1777761186 | 22.22° C | 47% | 1017.8 hPa | 0 mm | - | 337 W/m² | - |
| 1777760883 | 22.78° C | 47% | 1017.6 hPa | 0 mm | - | 211 W/m² | - |
| 1777760580 | 22.22° C | 43% | 1017.7 hPa | 0 mm | - | 373 W/m² | - |
| 1777760276 | 22.78° C | 45% | 1017.4 hPa | 0 mm | - | 376 W/m² | - |
| 1777759972 | 22.78° C | 45% | 1017.7 hPa | 0 mm | - | 382 W/m² | - |
| 1777759669 | 22.22° C | 45% | 1017.3 hPa | 0 mm | - | 432 W/m² | - |
| 1777759365 | 22.78° C | 42% | 1017.6 hPa | 0 mm | - | 474 W/m² | - |
| 1777759062 | 22.78° C | 41% | 1017.5 hPa | 0 mm | - | 481 W/m² | - |
| 1777758759 | 22.78° C | 46% | 1017.6 hPa | 0 mm | - | 350 W/m² | - |
| 1777758456 | 22.78° C | 46% | 1017.4 hPa | 0 mm | - | 413 W/m² | - |
| 1777758153 | 22.78° C | 42% | 1017.5 hPa | 0 mm | - | 456 W/m² | - |
* Rain latest hour (hover to see other rain measurements)
** Current wind speed in m/s (hover to see current wind gust speed)